Regional Weather Roundup
Issued by NWS

Home | Current Version | Previous Version | Graphics & Text | Print | Product List | Glossary On
Versions: 1 2 3 4 5 6 7 8 9 10 11 12 13 14 15 16 17 18 19 20 21 22 23 24 25 26 27 28 29 30 31 32 33 34 35 36 37 38 39 40 41 42 43 44 45 46 47 48 49 50
000
ASUS45 KSLC 020010
RWRUT

UTAH REGIONAL WEATHER ROUNDUP
NATIONAL WEATHER SERVICE SALT LAKE CITY UT
600 PM MDT MON JUN 01 2015

UTZ001>011-023>025-020100-

NORTHERN UTAH

CITY           SKY/WX    TMP DP  RH WIND       PRES   REMARKS
BRIGHAM CITY   CLOUDY    71  43  35 N26       29.88R
HILL AFB       NOT AVBL
LOGAN          MOSUNNY   66  44  45 N22       29.94R
OGDEN          LGT RAIN  71  45  39 N23G43    29.85R
PROVO AIRPORT  MOSUNNY   84  46  26 SW17      29.85F
SALT LAKE CITY PTSUNNY   89  31  12 SW18      29.78F
VERNAL         MOSUNNY   85  33  15 W9G20     29.89F
WENDOVER       PTSUNNY   81  39  22 NW16G25   29.80S
HEBER CITY     MOSUNNY   82  27  13 SW22G40   29.90F
WEST JORDAN    SUNNY     88  32  13 S20G31    29.84F

$$

UTZ012>022-026-027-020100-

SOUTHERN/CENTRAL UTAH

CITY           SKY/WX    TMP DP  RH WIND       PRES   REMARKS
BLANDING       SUNNY     86  24  10 SW17G24   30.08F
BRYCE CANYON   MOSUNNY   74  25  16 SW22G33   30.16F
CEDAR CITY     SUNNY     81  24  12 SW25G36   29.98F
DELTA          SUNNY     88  20   8 S24G37    29.89S
HANKSVILLE     SUNNY     93  25   8 SW16G26   29.88S
MILFORD        SUNNY     85  28  12 SW25G40   29.92F
MOAB/CYNLANDS  SUNNY     93  15   6 SW22G35   29.84F
PRICE          PTSUNNY   84  19   9 SW12      29.92F
ST GEORGE      PTCLDY    97  30   9 SW29G37   29.83S HX  91

$$

REGIONAL REPORTS     COLORADO/ARIZONA

CITY           SKY/WX    TMP DP  RH WIND       PRES   REMARKS
CRAIG, CO      MOSUNNY   80  44  27 SW15      29.99F
GRAND JUNCTION MOSUNNY   88  30  12 SW16G24   29.88F
RIFLE          LGT RAIN  84  33  16 SW14G35   29.94F
MONTROSE       MOSUNNY   87  29  12 W15G22    30.00F
CORTEZ         SUNNY     85  31  14 S14       30.04F
PAGE, AZ       MOSUNNY   92  17   6 SW9G17    29.89F
GRAND CANYON   MOSUNNY   78  17  10 SW20G30   30.15S
KINGMAN        PTSUNNY   90   8   4 SW21G30   29.95F
FLAGSTAFF      SUNNY     75  22  13 SW25      30.20F

$$

REGIONAL REPORTS    NEVADA/IDAHO/WYOMING

CITY           SKY/WX    TMP DP  RH WIND       PRES   REMARKS
LAS VEGAS, NV  PTSUNNY   93  10   4 SW23G30   29.77F
ELY            SUNNY     80  28  15 SW24G36   29.96S
ELKO           SUNNY     80  30  16 W14G23    29.89F
POCATELLO, ID  LGT RAIN  55  52  89 E16G22    29.94R FOG
BURLEY         PTSUNNY   70  46  42 SE5       29.90F
EVANSTON, WY   MOSUNNY   75  27  17 SW25G37   29.99F
ROCK SPRINGS   LGT RAIN  66  33  29 SW29G39   30.06R
KEMMERER       MOSUNNY   75  23  14 SW25G31   30.01F

$$



USA.gov is the U.S. government's official web portal to all federal, state and local government web resources and services.